TimeMST,TemperatureF,Dew PointF,Humidity,Sea Level PressureIn,VisibilityMPH,Wind Direction,Wind SpeedMPH,Gust SpeedMPH,PrecipitationIn,Events,Conditions,WindDirDegrees,DateUTC
12:53 AM,89.1,36.0,15,29.74,10.0,NNW,8.1,-,N/A,,Clear,330,2013-07-01 07:53:00
1:53 AM,84.0,37.0,19,29.75,10.0,Calm,Calm,-,N/A,,Clear,0,2013-07-01 08:53:00
2:53 AM,82.0,37.0,20,29.78,10.0,Calm,Calm,-,N/A,,Clear,0,2013-07-01 09:53:00
3:53 AM,79.0,37.9,23,29.80,10.0,Calm,Calm,-,N/A,,Clear,0,2013-07-01 10:53:00
4:53 AM,77.0,36.0,23,29.83,10.0,ESE,3.5,-,N/A,,Clear,120,2013-07-01 11:53:00
5:53 AM,77.0,36.0,23,29.85,10.0,SE,6.9,-,N/A,,Clear,130,2013-07-01 12:53:00
6:53 AM,84.0,39.9,21,29.87,10.0,East,6.9,-,N/A,,Clear,100,2013-07-01 13:53:00
7:53 AM,87.1,44.1,22,29.88,10.0,SE,4.6,-,N/A,,Clear,140,2013-07-01 14:53:00
8:53 AM,90.0,44.1,20,29.88,10.0,East,5.8,-,N/A,,Clear,80,2013-07-01 15:53:00
9:53 AM,91.9,44.1,19,29.88,10.0,NNE,5.8,-,N/A,,Clear,30,2013-07-01 16:53:00
10:53 AM,95.0,43.0,17,29.86,10.0,NE,5.8,-,N/A,,Clear,40,2013-07-01 17:53:00
11:53 AM,97.0,43.0,16,29.85,10.0,North,8.1,-,N/A,,Clear,360,2013-07-01 18:53:00
12:53 PM,99.0,42.1,14,29.83,10.0,NE,6.9,-,N/A,,Clear,40,2013-07-01 19:53:00
1:53 PM,100.9,37.9,11,29.79,10.0,Variable,5.8,-,N/A,,Clear,0,2013-07-01 20:53:00
2:53 PM,104.0,37.9,10,29.77,10.0,Variable,5.8,-,N/A,,Clear,0,2013-07-01 21:53:00
3:53 PM,104.0,27.0,7,29.75,10.0,Variable,4.6,-,N/A,,Clear,0,2013-07-01 22:53:00
4:53 PM,104.0,28.9,7,29.73,10.0,NNW,6.9,-,N/A,,Clear,340,2013-07-01 23:53:00
5:53 PM,102.0,30.9,8,29.73,10.0,NNW,5.8,-,N/A,,Clear,330,2013-07-02 00:53:00
6:53 PM,99.0,33.1,10,29.73,10.0,NW,3.5,-,N/A,,Clear,310,2013-07-02 01:53:00
7:53 PM,97.0,39.0,13,29.74,10.0,NNW,4.6,-,N/A,,Clear,340,2013-07-02 02:53:00
8:53 PM,91.0,42.1,18,29.75,10.0,Calm,Calm,-,N/A,,Clear,0,2013-07-02 03:53:00
9:53 PM,90.0,41.0,18,29.77,10.0,SW,4.6,-,N/A,,Clear,220,2013-07-02 04:53:00
10:53 PM,86.0,42.1,21,29.77,10.0,Calm,Calm,-,N/A,,Clear,0,2013-07-02 05:53:00
11:53 PM,86.0,41.0,20,29.77,10.0,Calm,Calm,-,N/A,,Clear,0,2013-07-02 06:53:00